Content
SEND FEEDBACK

Daily
Averages
Monthly
Summary
Netherlands

MAASTRICHT, NETHERLANDS


Home > Europe > Netherlands
Elevation: 380 feet     Latitude: 50 55N     Longitude: 005 47E

WEATHER
 
SELECT A DAY
Number of Records: 301,495;   Date Range: 7/1/96 - 7/28/14
 
SHARE

PRINT THIS DATA

[ ← Previous Day ]
WEATHER ALMANAC - MARCH 12, 2013
[ Next Day → ]
[ °C ]   °F
Weather ElementAverageHighLow
Temperature25.3 °F26.6 °F (2:55 pm)24 °F (4:00 am)
Dewpoint20.5 °F23 °F (5:25 am)17 °F (10:00 pm)
Humidity81.5 %93 % (5:25 am)60 % (10:00 pm)
Barometer29.62 in29.72 in (10:00 pm)29.59 in (3:55 am)
Wind Speed17.4 mph22.4 mph (4:00 am)
Weather ElementAverage
Visibility5.3 mi
Wind DirectionNE (40.4 °)

Weather ElementTotal
Precipitation---
Heating Degree Days39.7 (Base 65)
Averaged from 53 records on March 12, 2013
WEATHER CONDITIONS BREAKOUT
WIND DIRECTION BREAKOUT
WEATHER BY HOUR - MARCH 12, 2013
[ °C ]   °F
Local TimeTemperatureDewpointHumidityBarometerVisibilityWind DirectionWind SpeedGust SpeedPrecipitationEventsConditions
12:55 AM24.8 °F21.2 °F86 %29.62 in6.2 miNE (50°)21.9 mphOvercast
1:00 AM25.0 °F20.0 °F76 %29.68 in4.0 miNE (50°)20.1 mphSnowLight Snow Showers
1:25 AM24.8 °F21.2 °F86 %29.62 in5.0 miNE (50°)18.4 mphMostly Cloudy
1:55 AM24.8 °F21.2 °F86 %29.62 inNE (50°)18.4 mphSnowLight Snow
2:25 AM24.8 °F21.2 °F86 %29.62 in3.7 miNE (50°)20.7 mphSnowLight Snow Grains
2:55 AM24.8 °F21.2 °F86 %29.62 in5.0 miNE (50°)20.7 mphSnowLight Snow Grains
3:25 AM24.8 °F21.2 °F86 %29.62 in5.6 miNE (50°)19.6 mphMostly Cloudy
3:55 AM24.8 °F21.2 °F86 %29.59 in4.3 miNE (50°)21.9 mphMostly Cloudy
4:00 AM24.0 °F21.0 °F84 %29.63 in4.0 miNE (50°)22.4 mphSnowSnow Grains
4:25 AM24.8 °F21.2 °F86 %29.59 in4.3 miNE (50°)21.9 mphMostly Cloudy
4:55 AM24.8 °F21.2 °F86 %29.59 in1.7 miNE (50°)19.6 mphSnowLight Snow
5:25 AM24.8 °F23.0 °F93 %29.59 inNE (50°)18.4 mphSnowLight Snow
5:55 AM24.8 °F21.2 °F86 %29.59 in2.2 miNE (50°)18.4 mphSnowLight Snow
6:25 AM24.8 °F21.2 °F86 %29.59 in1.7 miNE (50°)20.7 mphSnowLight Snow
6:55 AM24.8 °F21.2 °F86 %29.59 inNE (50°)20.7 mphSnowLight Snow
7:00 AM24.0 °F22.0 °F88 %29.62 in2.0 miNE (50°)20.1 mphSnowLight Snow
7:25 AM24.8 °F21.2 °F86 %29.59 in1.5 miNE (50°)21.9 mphSnowLight Snow
7:55 AM24.8 °F21.2 °F86 %29.59 in1.6 miNE (50°)20.7 mphSnowLight Snow
8:55 AM24.8 °F21.2 °F86 %29.59 in1.7 miNE (40°)18.4 mphSnowLight Snow
9:25 AM24.8 °F21.2 °F86 %29.59 in1.3 miNE (40°)19.6 mphSnowLight Snow Showers
9:55 AM24.8 °F21.2 °F86 %29.59 inNE (40°)20.7 mphSnowLight Snow
10:00 AM24.0 °F21.0 °F83 %29.64 in2.0 miNE (40°)20.1 mphSnowLight Snow
10:25 AM24.8 °F21.2 °F86 %29.59 inNE (40°)18.4 mphSnowLight Snow
10:55 AM24.8 °F21.2 °F86 %29.62 inNE (40°)18.4 mphSnowLight Snow
11:25 AM24.8 °F21.2 °F86 %29.62 in3.7 miNE (40°)20.7 mphSnowLight Snow
11:55 AM24.8 °F21.2 °F86 %29.59 inNE (40°)20.7 mphSnowLight Snow
12:25 PM24.8 °F21.2 °F86 %29.59 in3.7 miNE (40°)19.6 mphSnowLight Snow
12:55 PM24.8 °F21.2 °F86 %29.59 in1.7 miNE (40°)19.6 mphSnowLight Snow
1:00 PM25.0 °F22.0 °F85 %29.65 in1.0 miNNE (30°)20.1 mphSnowLight Snow Showers
1:25 PM24.8 °F23.0 °F93 %29.62 in1.1 miNE (40°)20.7 mphSnowLight Snow
1:55 PM24.8 °F23.0 °F93 %29.59 inNE (40°)19.6 mphSnowLight Snow
2:25 PM24.8 °F21.2 °F86 %29.59 in3.7 miNE (40°)20.7 mphOvercast
2:55 PM26.6 °F21.2 °F80 %29.59 in5.6 miNE (40°)19.6 mphMostly Cloudy
3:25 PM26.6 °F23.0 °F86 %29.62 in3.7 miNE (40°)15.0 mphSnowLight Snow
3:55 PM26.6 °F23.0 °F86 %29.62 inNE (40°)16.1 mphSmall Hail
4:25 PM26.6 °F23.0 °F86 %29.62 in3.1 miNNE (30°)18.4 mphSnowLight Snow
4:55 PM26.6 °F21.2 °F80 %29.62 in6.2 miNE (40°)15.0 mphOvercast
5:25 PM26.6 °F21.2 °F80 %29.62 in6.2 miNE (50°)13.8 mphOvercast
5:55 PM26.6 °F19.4 °F74 %29.62 in6.2 miNE (40°)16.1 mphMostly Cloudy
6:25 PM26.6 °F19.4 °F74 %29.62 in6.2 miNNE (30°)12.7 mphOvercast
6:55 PM26.6 °F17.6 °F69 %29.65 in6.2 miNE (40°)13.8 mphOvercast
7:00 PM26.0 °F18.0 °F63 %29.68 in28.0 miNNE (30°)13.4 mphPartly Cloudy
7:25 PM26.6 °F19.4 °F74 %29.65 in6.2 miNNE (30°)12.7 mphOvercast
7:55 PM26.6 °F17.6 °F69 %29.65 in6.2 miNNE (30°)11.5 mphOvercast
8:25 PM26.6 °F17.6 °F69 %29.65 in6.2 miNNE (30°)12.7 mphOvercast
8:55 PM26.6 °F17.6 °F69 %29.65 in6.2 miNNE (20°)12.7 mphOvercast
9:25 PM26.6 °F17.6 °F69 %29.65 in6.2 miNNE (20°)12.7 mphOvercast
9:55 PM24.8 °F17.6 °F74 %29.68 in6.2 miNNE (30°)11.5 mphOvercast
10:00 PM25.0 °F17.0 °F60 %29.72 in28.0 miNNE (30°)11.2 mphOvercast
10:25 PM24.8 °F17.6 °F74 %29.68 in6.2 miNNE (30°)11.5 mphOvercast
10:55 PM24.8 °F17.6 °F74 %29.68 in6.2 miNNE (30°)10.4 mphOvercast
11:25 PM24.8 °F17.6 °F74 %29.68 in6.2 miNNE (30°)10.4 mphOvercast
11:55 PM24.8 °F17.6 °F74 %29.68 in6.2 miNNE (30°)9.2 mphOvercast
Hourly data recorded from EHBK, located miles away from Maastricht, Netherlands







STORIES FROM OUR PARTNERS